Torna al catalogo

ARIANE 44L DEB

AttivoHEO
NORAD 28573·DEBRIS·🇫🇷 France

Lanciato Jan 15, 1991 da Guiana Space Centre

Loading…

Prossimi Passaggi (prossime 24 ore)

TLE

AggiornatoSource: Space-Track

Epoca: Sep 14, 2026, 08:31 UTC

1 28573U 91003N   26257.35496985 -.00000087  00000-0 -73789-3 0  9993
2 28573   6.7897 137.6428 6810800 278.6412 314.0855  2.64778710223261

Traccia ARIANE 44L DEB in tempo reale con AllMySat

Download on the App Store